Miscellaneous Local Product
Issued by NWS Hastings, NE

Home | Current Version | Previous Version | Graphics & Text | Print | Product List | Glossary On
Versions: 1 2 3 4 5 6 7 8 9 10 11 12 13 14 15 16 17 18 19 20 21 22 23 24 25 26 27 28 29 30 31 32 33 34 35 36 37 38 39 40 41 42 43 44 45 46 47 48 49 50
913
AXUS43 KGID 030202
MISGRI

GID CWA HOURLY WEATHER ROUNDUP
NATIONAL WEATHER SERVICE HASTINGS NE
800 PM CST FRI DEC 02 2016

NOTE: "FAIR" INDICATES FEW OR NO CLOUDS BELOW 12,000 FEET WITH NO
SIGNIFICANT WEATHER AND/OR OBSTRUCTIONS TO VISIBILITY.

...SOUTH CENTRAL NEBRASKA...

CITY           SKY/WX    TMP DP  RH WIND       PRES   REMARKS
GRAND ISLAND   CLEAR     27  23  85 S3        30.29S
HASTINGS       CLEAR     26  22  84 CALM      30.30R
KEARNEY        CLEAR     28  21  74 CALM      30.29R
ORD            CLEAR     23  17  78 S3        30.26S
YORK           PTCLDY    27  23  86 NE5       30.31R WCI  21
AURORA         CLEAR     28  24  86 E5        30.30R WCI  23
LEXINGTON      CLEAR     26  22  85 S3        30.27R
HOLDREGE       CLEAR     26  21  80 CALM      30.27S
HEBRON         PTCLDY    30  23  75 CALM      30.31S

...NEBRASKA PANHANDLE...

CITY           SKY/WX    TMP DP  RH WIND       PRES   REMARKS
CHADRON        CLOUDY    27  18  69 S7        30.20S WCI  19
ALLIANCE       CLEAR     23  17  78 SW7       30.19S WCI  15
SCOTTSBLUFF    CLEAR     22  14  71 CALM      30.20R
SIDNEY         CLOUDY    21  17  84 SW7       30.21R WCI  12

...WESTERN AND NORTH CENTRAL NEBRASKA...

CITY           SKY/WX    TMP DP  RH WIND       PRES   REMARKS
VALENTINE      CLEAR     24  20  84 CALM      30.24S
AINSWORTH      CLEAR     28  24  85 CALM      30.24F
ONEILL         PTCLDY    29  26  88 SE3       30.27F
BROKEN BOW     CLEAR     24  21  88 CALM      30.24S
IMPERIAL       CLOUDY    31  23  72 CALM      30.25R
NORTH PLATTE   CLEAR     25  21  85 S3        30.25R
MCCOOK         MOCLDY    29  20  69 CALM      30.27R

...EASTERN NEBRASKA...

CITY           SKY/WX    TMP DP  RH WIND       PRES   REMARKS
NORFOLK        CLEAR     22  20  92 E3        30.30S
SO SIOUX CITY  CLOUDY    35  32  88 CALM      30.34R
TEKAMAH        CLOUDY    36  27  69 NW8       30.34S WCI  30
COLUMBUS       CLEAR     28  21  74 CALM      30.32S
ALBION         CLEAR     25  22  87 CALM      30.29F
OMAHA EPPLEY   CLOUDY    34  26  72 CALM      30.35R
OFFUTT AFB     CLEAR     27  26  99 CALM      30.34R
MILLARD        CLEAR     32  27  83 CALM      30.35R
LINCOLN        CLOUDY    26  23  88 NE6       30.34R WCI  19
NEBRASKA CITY  PTCLDY    33  27  78 NE3       30.33S
BEATRICE       CLEAR     29  24  82 NE3       30.32R
FALLS CITY       N/A    N/A N/A N/A MISG      30.32S

...NORTHERN KANSAS...

CITY           SKY/WX    TMP DP  RH WIND       PRES   REMARKS
GOODLAND       CLOUDY    32  18  56 NE5       30.22F WCI  27
HILL CITY      CLEAR     26  19  74 N3        30.27R
NORTON         CLEAR     28  18  64 CALM      30.26S
PHILLIPSBURG   CLEAR     30  23  74 N3        30.29R
SMITH CENTER   CLEAR     28  23  80 NE8       30.29S WCI  20
BELOIT         CLEAR     27  21  80 CALM      30.28F
HAYS           CLEAR     30  23  75 CALM      30.28R
RUSSELL        CLEAR     31  22  69 NE6       30.26R WCI  25
CONCORDIA      CLEAR     32  25  75 NE3       30.29S
SALINA         CLEAR     34  22  61 N3        30.29S
TOPEKA         CLEAR     35  26  69 CALM      30.32R



USA.gov is the U.S. government's official web portal to all federal, state and local government web resources and services.